This demonstration page uses our WeatherBlox Daily Observations layout. Learn more.

Left ArrowRight Arrow

39.51506, -84.39828

Hourly Observations for January 11, 2019

Temp ( °F °C ) Dew Point ( °F °C ) Humidity (%) Winds ( mph kmh ) Pressure ( in mb ) Visibility ( mi km ) Precip ( " mm )
12:15 am 00:15 Cloudy 27 -3 18 -7.6 71 71 Calm 30.39 1029 10 16 0.00 0.00
12:35 am 00:35 Cloudy 27 -3 19 -7.4 72 72 Calm 30.39 1029 10 16 0.00 0.00
12:55 am 00:55 Cloudy 27 -3 19 -7.4 72 72 Calm 30.42 1030 10 16 0.00 0.00
1:15 am 01:15 Cloudy 27 -3 19 -7.4 72 72 Calm 30.42 1030 10 16 0.00 0.00
1:35 am 01:35 Cloudy 27 -3 19 -7.3 73 73 NNW 5 7 30.42 1030 10 16 0.00 0.00
1:55 am 01:55 Cloudy 26 -3.1 18 -7.6 71 71 N 5 7 30.42 1030 10 16 0.00 0.00
2:15 am 02:15 Cloudy 26 -3.1 18 -7.6 71 71 Calm 30.42 1030 10 16 0.00 0.00
2:35 am 02:35 Cloudy 26 -3.1 19 -7.5 72 72 Calm 30.42 1030 10 16 0.00 0.00
2:55 am 02:55 Cloudy 27 -3 19 -7.4 72 72 N 6 9 30.42 1030 10 16 0.00 0.00
3:15 am 03:15 Cloudy 26 -3.1 19 -7.4 73 73 NNW 3 6 30.42 1030 10 16 0.00 0.00
3:35 am 03:35 Cloudy 26 -3.1 19 -7.4 73 73 N 3 6 30.39 1029 10 16 0.00 0.00
3:55 am 03:55 Cloudy 26 -3.1 19 -7.5 72 72 NE 3 6 30.42 1030 10 16 0.00 0.00
4:15 am 04:15 Cloudy 26 -3.1 19 -7.4 73 73 Calm 30.42 1030 10 16 0.00 0.00
4:30 am 04:30 Cloudy 26 -3.1 19 -7.4 73 73 Calm 30.42 1030 10 16 0.00 0.00
4:55 am 04:55 Cloudy 26 -3.1 19 -7.2 74 74 Calm 30.42 1030 10 16 0.00 0.00
5:15 am 05:15 Cloudy 26 -3.1 19 -7.1 74 74 Calm 30.42 1030 10 16 0.00 0.00
5:35 am 05:35 Cloudy 26 -3.2 19 -7.2 74 74 Calm 30.42 1030 10 16 0.00 0.00
5:55 am 05:55 Cloudy 26 -3.1 19 -7.4 73 73 Calm 30.42 1030 10 16 0.00 0.00
6:15 am 06:15 Cloudy 26 -3.1 19 -7.2 74 74 Calm 30.45 1031 10 16 0.00 0.00
6:35 am 06:35 Cloudy 26 -3.1 19 -7 75 75 NNW 3 6 30.45 1031 10 16 0.00 0.00
6:55 am 06:55 Cloudy 26 -3.1 19 -7.3 73 73 NNW 5 7 30.45 1031 10 16 0.00 0.00
7:15 am 07:15 Cloudy 26 -3.2 19 -7.3 74 74 NW 3 6 30.45 1031 10 16 0.00 0.00
7:35 am 07:35 Cloudy 26 -3.2 19 -7.2 74 74 Calm 30.45 1031 10 16 0.00 0.00
7:55 am 07:55 Cloudy 26 -3.1 19 -7.1 74 74 Calm 30.45 1031 10 16 0.00 0.00
8:15 am 08:15 Cloudy 26 -3.1 19 -7.2 74 74 Calm 30.45 1031 10 16 0.00 0.00
8:35 am 08:35 Cloudy 27 -3 19 -7.3 73 73 Calm 30.45 1031 10 16 0.00 0.00
8:55 am 08:55 Cloudy 27 -2.9 19 -7.3 72 72 ENE 5 7 30.45 1031 10 16 0.00 0.00
9:15 am 09:15 Cloudy 27 -2.8 19 -7.4 71 71 Calm 30.45 1031 10 16 0.00 0.00
9:35 am 09:35 Cloudy 27 -2.6 19 -7.4 70 70 ESE 5 7 30.48 1032 10 16 0.00 0.00
9:55 am 09:55 Cloudy 28 -2.5 19 -7.3 70 70 ENE 7 11 30.48 1032 10 16 0.00 0.00
10:15 am 10:15 Cloudy 28 -2.3 19 -7.2 69 69 E 5 7 30.48 1032 10 16 0.00 0.00
10:35 am 10:35 Cloudy 28 -2.2 19 -7.3 68 68 ESE 5 7 30.48 1032 10 16 0.00 0.00
10:55 am 10:55 Cloudy 28 -2.3 18 -7.6 67 67 SSE 6 9 30.48 1032 10 16 0.00 0.00
11:15 am 11:15 Cloudy 28 -2 19 -7.4 67 67 E 7 11 30.48 1032 10 16 0.00 0.00
11:35 am 11:35 Cloudy 28 -2 19 -7.5 66 66 E 5 7 30.48 1032 10 16 0.00 0.00
11:55 am 11:55 Cloudy 29 -1.7 19 -7.3 66 66 ESE 6 9 30.45 1031 10 16 0.00 0.00
12:15 pm 12:15 Cloudy 29 -1.8 19 -7.4 66 66 E 5 7 30.45 1031 10 16 0.00 0.00
12:35 pm 12:35 Cloudy 29 -1.6 19 -7.3 65 65 ESE 5 7 30.45 1031 10 16 0.00 0.00
12:55 pm 12:55 Cloudy 30 -1.3 19 -7.2 65 65 ESE 6 9 30.45 1031 10 16 0.00 0.00
1:15 pm 13:15 Mostly Cloudy 30 -1.2 19 -7.4 63 63 ENE 3 6 30.42 1030 10 16 0.00 0.00
1:35 pm 13:35 Cloudy 31 -0.3 19 -7.1 61 61 SE 6 9 30.42 1030 10 16 0.00 0.00
1:55 pm 13:55 Sunny 31 -0.7 19 -7.3 61 61 SE 7 11 30.42 1030 10 16 0.00 0.00
2:15 pm 14:15 Sunny 31 -0.7 19 -7.3 61 61 SE 3 6 30.42 1030 10 16 0.00 0.00
2:35 pm 14:35 Partly Cloudy 32 0 20 -6.8 61 61 ENE 6 9 30.39 1029 10 16 0.00 0.00
2:55 pm 14:55 Sunny 32 -0.1 19 -7 60 60 ENE 9 15 30.39 1029 10 16 0.00 0.00
3:15 pm 15:15 Sunny 32 0 20 -6.9 60 60 E 9 15 30.39 1029 10 16 0.00 0.00
3:35 pm 15:35 Sunny 31 -0.3 20 -6.9 61 61 E 7 11 30.39 1029 10 16 0.00 0.00
3:55 pm 15:55 Sunny 31 -0.4 19 -7 61 61 E 7 11 30.39 1029 10 16 0.00 0.00
4:15 pm 16:15 Sunny 31 -0.6 19 -7.1 62 62 E 8 13 30.39 1029 10 16 0.00 0.00
4:35 pm 16:35 Partly Cloudy 31 -0.7 20 -6.9 63 63 E 8 13 30.39 1029 10 16 0.00 0.00
4:55 pm 16:55 Sunny 30 -0.9 19 -7 64 64 E 8 13 30.39 1029 10 16 0.00 0.00
5:15 pm 17:15 Sunny 30 -0.9 20 -6.9 64 64 E 7 11 30.39 1029 10 16 0.00 0.00
5:35 pm 17:35 Clear 30 -1.2 20 -6.8 66 66 E 6 9 30.39 1029 10 16 0.00 0.00
5:55 pm 17:55 Clear 29 -1.5 20 -6.5 69 69 E 5 7 30.42 1030 10 16 0.00 0.00
6:15 pm 18:15 Clear 30 -1.3 20 -6.7 67 67 E 6 9 30.39 1029 10 16 0.00 0.00
6:35 pm 18:35 Clear 29 -1.4 20 -6.7 68 68 E 7 11 30.39 1029 10 16 0.00 0.00
6:55 pm 18:55 Clear 29 -1.7 20 -6.6 70 70 ENE 6 9 30.39 1029 10 16 0.00 0.00
7:15 pm 19:15 Clear 29 -1.7 20 -6.5 70 70 ENE 5 7 30.39 1029 10 16 0.00 0.00
7:35 pm 19:35 Clear 29 -1.9 20 -6.4 72 72 ENE 5 7 30.42 1030 10 16 0.00 0.00
7:55 pm 19:55 Clear 29 -1.8 21 -6.3 72 72 ENE 6 9 30.39 1029 10 16 0.00 0.00
8:15 pm 20:15 Clear 29 -1.7 21 -6.3 71 71 ENE 6 9 30.39 1029 10 16 0.00 0.00
8:35 pm 20:35 Clear 29 -1.6 21 -6.3 71 71 ENE 8 13 30.39 1029 10 16 0.00 0.00
8:55 pm 20:55 Clear 29 -1.7 21 -6.3 71 71 ENE 5 7 30.39 1029 10 16 0.00 0.00
9:15 pm 21:15 Clear 29 -1.7 21 -6.3 71 71 ENE 6 9 30.39 1029 10 16 0.00 0.00
9:35 pm 21:35 Clear 29 -1.7 21 -6.3 71 71 ENE 5 7 30.39 1029 10 16 0.00 0.00
9:55 pm 21:55 Clear 29 -1.6 20 -6.4 70 70 ENE 5 7 30.39 1029 10 16 0.00 0.00
10:15 pm 22:15 Clear 29 -1.6 21 -6.3 71 71 ENE 3 6 30.39 1029 10 16 0.00 0.00
10:35 pm 22:35 Clear 29 -1.7 21 -6.1 72 72 ENE 3 6 30.39 1029 10 16 0.00 0.00
10:55 pm 22:55 Mostly Cloudy 29 -1.6 21 -6.1 72 72 Calm 30.39 1029 10 16 0.00 0.00
11:15 pm 23:15 Cloudy 29 -1.6 21 -6 72 72 Calm 30.39 1029 10 16 0.00 0.00
11:35 pm 23:35 Cloudy 30 -1.3 20 -6.4 69 69 Calm 30.39 1029 10 16 0.00 0.00
11:55 pm 23:55 Cloudy 30 -1.2 20 -6.5 68 68 ESE 3 6 30.39 1029 10 16 0.00 0.00

Powered by AerisWeather